AMC-14

Last updated on Tue Sep 16 2025 00:02:46 GMT+0000 (Coordinated Universal Time)

1 32708U 08011A 25258.51862233 .00000095 00000+0 00000+0 0 9994 2 32708 23.6742 23.8209 0034835 4.6301 180.8514 1.00318147 65415
UTC large
Height (km)
Speed (km/s)
/
Latitude / Longitude
Inclination (degrees)
Orbital Period (minutes)
Azimuth
Elevation
Range (km)
Doppler Factor

Next 0 passes for location: London (51.5072 / 0.1276)

Sorry there are no passes over London.